VOI3180 MMTJ-MMHO

Flight info

Callsign VOI3180
Flight time 0h 55m
Altitude 33000
Route TEVIR2B TEVIR UT18 AVTEN AVTEN1A
Aircraft A20N/M-SDE2E3FGHIRWXY/LB1

Departure

Time 2026-05-04 04:47
Airport General Abelardo L. Rodriguez International Airport (MMTJ)

Arrival

Time 2026-05-04 05:42
Airport General Ignacio L. Pesqueira International Airport (MMHO)
Time Latitude Longitude Altitude Speed Heading
2026-05-04 04:20 32.54469 -116.97415 470 ft 0 kts 290°
2026-05-04 04:38 32.54461 -116.97389 470 ft 4 kts 286°
2026-05-04 04:38 32.54454 -116.97358 465 ft 4 kts 277°
2026-05-04 04:38 32.54454 -116.97327 465 ft 4 kts 246°
2026-05-04 04:39 32.54465 -116.97312 469 ft 1 kts 202°
2026-05-04 04:39 32.54467 -116.97311 465 ft 0 kts 202°
2026-05-04 04:42 32.54448 -116.97321 467 ft 5 kts 202°
2026-05-04 04:42 32.54406 -116.97342 470 ft 8 kts 208°
2026-05-04 04:42 32.54363 -116.97396 469 ft 11 kts 229°
2026-05-04 04:42 32.54333 -116.97395 470 ft 4 kts 124°
2026-05-04 04:43 32.54319 -116.97327 470 ft 14 kts 99°
2026-05-04 04:43 32.54299 -116.97184 469 ft 20 kts 99°
2026-05-04 04:43 32.54276 -116.97006 469 ft 23 kts 99°
2026-05-04 04:43 32.54250 -116.96809 469 ft 25 kts 99°
2026-05-04 04:44 32.54220 -116.96595 469 ft 27 kts 99°
2026-05-04 04:44 32.54190 -116.96366 469 ft 29 kts 98°
2026-05-04 04:44 32.54160 -116.96136 470 ft 28 kts 99°
2026-05-04 04:44 32.54129 -116.95903 470 ft 29 kts 98°
2026-05-04 04:45 32.54097 -116.95670 470 ft 16 kts 99°
2026-05-04 04:45 32.54079 -116.95536 468 ft 18 kts 99°
2026-05-04 04:45 32.54041 -116.95431 470 ft 10 kts 157°
2026-05-04 04:47 32.54304 -116.98614 1674 ft 161 kts 273°
2026-05-04 04:47 32.54107 -116.99956 2550 ft 170 kts 249°
2026-05-04 04:47 32.53559 -117.01278 3200 ft 187 kts 245°
2026-05-04 04:47 32.53005 -117.02738 3882 ft 199 kts 250°
2026-05-04 04:48 32.52560 -117.04308 4755 ft 201 kts 255°
2026-05-04 04:49 32.50025 -117.09945 8149 ft 210 kts 203°
2026-05-04 04:49 32.48578 -117.10098 8991 ft 219 kts 175°
2026-05-04 04:49 32.47176 -117.09298 9825 ft 235 kts 144°
2026-05-04 04:49 32.46225 -117.07659 10525 ft 251 kts 122°
2026-05-04 04:50 32.45457 -117.05686 10846 ft 277 kts 119°
2026-05-04 04:50 32.44637 -117.03492 11192 ft 302 kts 119°
2026-05-04 04:50 32.43757 -117.01161 11562 ft 326 kts 119°
2026-05-04 04:50 32.42778 -116.98611 11840 ft 352 kts 119°
2026-05-04 04:51 32.41723 -116.95891 12219 ft 371 kts 119°
2026-05-04 04:51 32.40629 -116.93078 12956 ft 378 kts 119°
2026-05-04 04:51 32.39517 -116.90228 13712 ft 385 kts 120°
2026-05-04 04:51 32.38382 -116.87329 14406 ft 391 kts 120°
2026-05-04 04:52 32.37224 -116.84388 15001 ft 398 kts 121°
2026-05-04 04:52 32.36050 -116.81449 15679 ft 402 kts 121°
2026-05-04 04:52 32.34841 -116.78424 16266 ft 409 kts 121°
2026-05-04 04:52 32.33501 -116.75463 16978 ft 408 kts 129°
2026-05-04 04:53 32.31896 -116.72677 17529 ft 411 kts 132°
2026-05-04 04:53 32.30259 -116.69888 18210 ft 416 kts 131°
2026-05-04 04:53 32.28611 -116.67054 18804 ft 419 kts 132°
2026-05-04 04:53 32.26950 -116.64205 19356 ft 422 kts 132°
2026-05-04 04:54 32.25283 -116.61332 19883 ft 426 kts 132°
2026-05-04 04:54 32.23626 -116.58420 20423 ft 430 kts 131°
2026-05-04 04:54 32.21973 -116.55520 20949 ft 431 kts 132°
2026-05-04 04:54 32.20290 -116.52564 21466 ft 437 kts 129°
2026-05-04 04:55 32.18850 -116.49344 21990 ft 447 kts 122°
2026-05-04 04:55 32.17523 -116.46002 22541 ft 451 kts 122°
2026-05-04 04:55 32.16178 -116.42634 23098 ft 455 kts 122°
2026-05-04 04:55 32.14815 -116.39250 23634 ft 458 kts 123°
2026-05-04 04:56 32.13444 -116.35844 24074 ft 461 kts 123°
2026-05-04 04:56 32.12060 -116.32407 24496 ft 466 kts 123°
2026-05-04 04:56 32.10661 -116.28937 24914 ft 470 kts 123°
2026-05-04 04:56 32.09243 -116.25436 25250 ft 475 kts 123°
2026-05-04 04:57 32.07832 -116.21965 25754 ft 476 kts 122°
2026-05-04 04:57 32.06398 -116.18425 26166 ft 481 kts 123°
2026-05-04 04:57 32.04950 -116.14848 26574 ft 484 kts 123°
2026-05-04 04:57 32.03490 -116.11246 26959 ft 488 kts 123°
2026-05-04 04:58 32.02019 -116.07619 27381 ft 490 kts 123°
2026-05-04 04:58 32.00544 -116.03989 27742 ft 495 kts 123°
2026-05-04 04:58 31.99050 -116.00313 28112 ft 498 kts 123°
2026-05-04 04:58 31.97542 -115.96614 28480 ft 502 kts 123°
2026-05-04 04:59 31.96042 -115.92941 28828 ft 507 kts 124°
2026-05-04 04:59 31.94499 -115.89167 29036 ft 513 kts 123°
2026-05-04 04:59 31.92952 -115.85375 29530 ft 512 kts 123°
2026-05-04 04:59 31.91403 -115.81590 29831 ft 515 kts 124°
2026-05-04 05:00 31.89657 -115.77931 30117 ft 510 kts 132°
2026-05-04 05:00 31.87698 -115.74454 30383 ft 511 kts 132°
2026-05-04 05:00 31.83757 -115.67424 30971 ft 517 kts 132°
2026-05-04 05:01 31.81780 -115.63876 31363 ft 518 kts 132°
2026-05-04 05:01 31.79792 -115.60314 31609 ft 522 kts 133°
2026-05-04 05:01 31.77816 -115.56784 31995 ft 522 kts 133°
2026-05-04 05:01 31.75816 -115.53216 32364 ft 521 kts 133°
2026-05-04 05:02 31.73819 -115.49658 32695 ft 522 kts 133°
2026-05-04 05:02 31.71814 -115.46091 32867 ft 523 kts 133°
2026-05-04 05:02 31.69810 -115.42529 32885 ft 521 kts 132°
2026-05-04 05:03 31.65813 -115.35429 32860 ft 522 kts 133°
2026-05-04 05:04 31.57802 -115.21256 32849 ft 523 kts 133°
2026-05-04 05:04 31.53773 -115.14141 32826 ft 523 kts 133°
2026-05-04 05:06 31.37582 -114.85692 32835 ft 525 kts 133°
2026-05-04 05:07 31.33508 -114.78570 32825 ft 525 kts 133°
2026-05-04 05:07 31.29442 -114.71471 32822 ft 525 kts 133°
2026-05-04 05:09 31.11113 -114.39637 32826 ft 525 kts 133°
2026-05-04 05:10 31.07038 -114.32593 32833 ft 526 kts 133°
2026-05-04 05:10 31.02933 -114.25516 32838 ft 526 kts 133°
2026-05-04 05:11 30.98826 -114.18439 32843 ft 526 kts 133°
2026-05-04 05:11 30.94743 -114.11414 32851 ft 527 kts 133°
2026-05-04 05:12 30.90619 -114.04334 32848 ft 527 kts 133°
2026-05-04 05:12 30.86499 -113.97275 32856 ft 527 kts 133°
2026-05-04 05:13 30.83066 -113.91404 32860 ft 527 kts 132°
2026-05-04 05:13 30.78263 -113.83202 32869 ft 527 kts 133°
2026-05-04 05:14 30.74825 -113.77341 32875 ft 527 kts 133°
2026-05-04 05:14 30.70684 -113.70295 32883 ft 527 kts 132°
2026-05-04 05:15 30.66545 -113.63263 32888 ft 527 kts 133°
2026-05-04 05:15 30.62391 -113.56221 32899 ft 526 kts 132°
2026-05-04 05:16 30.58284 -113.49269 32907 ft 526 kts 132°
2026-05-04 05:16 30.54137 -113.42261 32908 ft 526 kts 132°
2026-05-04 05:17 30.49997 -113.35276 32908 ft 525 kts 132°
2026-05-04 05:17 30.45849 -113.28291 32907 ft 525 kts 132°
2026-05-04 05:18 30.41709 -113.21333 32920 ft 524 kts 132°
2026-05-04 05:18 30.37598 -113.14435 32920 ft 523 kts 132°
2026-05-04 05:19 30.33455 -113.07493 32912 ft 524 kts 132°
2026-05-04 05:19 30.29308 -113.00560 32911 ft 524 kts 132°
2026-05-04 05:20 30.25161 -112.93637 32877 ft 524 kts 132°
2026-05-04 05:20 30.21011 -112.86722 32925 ft 523 kts 132°
2026-05-04 05:21 30.16862 -112.79819 32923 ft 523 kts 132°
2026-05-04 05:21 30.12725 -112.72947 32921 ft 524 kts 132°
2026-05-04 05:22 30.08548 -112.66022 32932 ft 525 kts 132°
2026-05-04 05:22 30.04366 -112.59102 32875 ft 526 kts 132°
2026-05-04 05:23 30.02266 -112.55632 32555 ft 526 kts 132°
2026-05-04 05:23 30.00199 -112.52217 31934 ft 526 kts 132°
2026-05-04 05:23 29.98092 -112.48742 31083 ft 530 kts 131°
2026-05-04 05:23 29.95969 -112.45245 30114 ft 534 kts 131°
2026-05-04 05:24 29.93818 -112.41707 28890 ft 541 kts 131°
2026-05-04 05:24 29.91666 -112.38163 28210 ft 535 kts 131°
2026-05-04 05:24 29.89549 -112.34675 27580 ft 528 kts 131°
2026-05-04 05:24 29.87458 -112.31233 26913 ft 522 kts 131°
2026-05-04 05:25 29.85379 -112.27819 26269 ft 516 kts 131°
2026-05-04 05:25 29.83326 -112.24452 25626 ft 510 kts 130°
2026-05-04 05:25 29.81298 -112.21128 24991 ft 504 kts 130°
2026-05-04 05:25 29.79290 -112.17841 24377 ft 499 kts 130°
2026-05-04 05:26 29.77303 -112.14592 23767 ft 494 kts 130°
2026-05-04 05:26 29.75333 -112.11373 23084 ft 486 kts 130°
2026-05-04 05:26 29.73407 -112.08226 22158 ft 477 kts 130°
2026-05-04 05:26 29.71520 -112.05141 21471 ft 464 kts 130°
2026-05-04 05:27 29.69692 -112.02153 20839 ft 450 kts 130°
2026-05-04 05:28 29.55993 -111.84780 18967 ft 396 kts 140°
2026-05-04 05:29 29.54106 -111.82537 18857 ft 383 kts 141°
2026-05-04 05:29 29.52286 -111.80377 18743 ft 370 kts 141°
2026-05-04 05:29 29.50527 -111.78294 18645 ft 357 kts 141°
2026-05-04 05:29 29.48822 -111.76277 18542 ft 345 kts 141°
2026-05-04 05:31 29.37303 -111.62708 14845 ft 333 kts 140°
2026-05-04 05:31 29.35691 -111.60809 14302 ft 331 kts 140°
2026-05-04 05:32 29.34090 -111.58925 13736 ft 329 kts 140°
2026-05-04 05:32 29.32491 -111.57050 12892 ft 335 kts 139°
2026-05-04 05:32 29.30844 -111.55121 12044 ft 340 kts 138°
2026-05-04 05:33 29.27496 -111.51198 10287 ft 347 kts 137°
2026-05-04 05:33 29.25822 -111.49231 9676 ft 340 kts 137°
2026-05-04 05:33 29.24191 -111.47312 9323 ft 334 kts 137°
2026-05-04 05:33 29.22558 -111.45395 8967 ft 337 kts 137°
2026-05-04 05:34 29.20934 -111.43488 8487 ft 330 kts 137°
2026-05-04 05:34 29.19356 -111.41639 8035 ft 326 kts 137°
2026-05-04 05:34 29.17779 -111.39792 7587 ft 323 kts 137°
2026-05-04 05:34 29.16230 -111.37965 7294 ft 312 kts 136°
2026-05-04 05:35 29.14766 -111.36241 7136 ft 291 kts 137°
2026-05-04 05:35 29.13393 -111.34631 6900 ft 275 kts 137°
2026-05-04 05:35 29.12064 -111.33078 6432 ft 271 kts 137°
2026-05-04 05:35 29.10756 -111.31552 5903 ft 268 kts 137°
2026-05-04 05:36 29.09459 -111.30036 5355 ft 265 kts 137°
2026-05-04 05:36 29.08187 -111.28548 5055 ft 254 kts 137°
2026-05-04 05:36 29.06927 -111.27250 4917 ft 235 kts 147°
2026-05-04 05:36 29.05621 -111.26311 4781 ft 216 kts 152°
2026-05-04 05:37 29.04368 -111.25458 4585 ft 204 kts 152°
2026-05-04 05:37 29.03209 -111.24656 4541 ft 184 kts 152°
2026-05-04 05:37 29.02127 -111.23904 4191 ft 183 kts 152°
2026-05-04 05:38 29.00840 -111.21624 3553 ft 176 kts 90°
2026-05-04 05:38 29.01268 -111.20319 3131 ft 177 kts 59°
2026-05-04 05:38 29.01949 -111.19117 2957 ft 183 kts 60°
2026-05-04 05:38 29.02610 -111.17896 2923 ft 180 kts 60°
2026-05-04 05:39 29.03253 -111.16691 2914 ft 173 kts 61°
2026-05-04 05:39 29.04480 -111.14379 2257 ft 167 kts 61°
2026-05-04 05:39 29.05080 -111.13248 1843 ft 166 kts 60°
2026-05-04 05:40 29.06220 -111.11160 1524 ft 150 kts 60°
2026-05-04 05:40 29.06760 -111.10138 1413 ft 150 kts 60°
2026-05-04 05:40 29.07302 -111.09110 1233 ft 153 kts 59°
2026-05-04 05:41 29.07860 -111.08064 1019 ft 154 kts 58°
2026-05-04 05:41 29.08409 -111.07024 819 ft 150 kts 60°
2026-05-04 05:41 29.08922 -111.06031 632 ft 140 kts 58°
2026-05-04 05:41 29.09341 -111.05242 629 ft 60 kts 59°
2026-05-04 05:42 29.09483 -111.04977 637 ft 26 kts 58°
2026-05-04 05:42 29.09544 -111.04862 632 ft 16 kts 58°
2026-05-04 05:42 29.09606 -111.04744 630 ft 19 kts 59°
2026-05-04 05:42 29.09677 -111.04607 631 ft 22 kts 59°
2026-05-04 05:43 29.09764 -111.04448 633 ft 25 kts 58°
2026-05-04 05:43 29.09846 -111.04295 638 ft 14 kts 60°
2026-05-04 05:43 29.09812 -111.04210 637 ft 14 kts 144°
2026-05-04 05:45 29.09365 -111.04697 634 ft 5 kts 270°
2026-05-04 05:45 29.09365 -111.04762 632 ft 11 kts 270°
2026-05-04 05:47 29.09119 -111.05184 634 ft 0 kts 152°